This demonstration page uses our WeatherBlox Daily Observations layout. Learn more.

Left ArrowRight Arrow

Hourly Observations for August 9, 2016

Temp ( °F °C ) Dew Point ( °F °C ) Humidity (%) Winds ( mph kmh ) Pressure ( in mb ) Visibility ( mi km ) Precip ( " mm )
12:15 am 00:15 Clear 68 20 68 20 100 100 SSW 3 6 30.15 1021 10 16 0.00 0.00
12:35 am 00:35 Clear 68 20 66 19 94 94 Calm 30.15 1021 10 16 0.00 0.00
12:55 am 00:55 Clear 66 19 66 19 100 100 SW 3 6 30.15 1021 10 16 0.00 0.00
1:15 am 01:15 Clear 66 19 66 19 100 100 Calm 30.15 1021 10 16 0.00 0.00
1:35 am 01:35 Clear 68 20 68 20 100 100 Calm 30.15 1021 10 16 0.00 0.00
1:55 am 01:55 Clear 66 19 66 19 100 100 Calm 30.15 1021 10 16 0.00 0.00
2:15 am 02:15 Clear 64 18 64 18 100 100 Calm 30.15 1021 10 16 0.00 0.00
2:35 am 02:35 Partly Cloudy 66 19 66 19 100 100 Calm 30.15 1021 10 16 0.00 0.00
2:55 am 02:55 Cloudy 66 19 66 19 100 100 Calm 30.15 1021 10 16 0.00 0.00
3:15 am 03:15 Cloudy 68 20 68 20 100 100 Calm 30.15 1021 10 16 0.00 0.00
3:35 am 03:35 Mostly Cloudy 68 20 68 20 100 100 Calm 30.15 1021 10 16 0.00 0.00
3:55 am 03:55 Clear 64 18 64 18 100 100 Calm 30.15 1021 10 16 0.00 0.00
4:15 am 04:15 Clear 66 19 66 19 100 100 Calm 30.15 1021 10 16 0.00 0.00
4:35 am 04:35 Mostly Cloudy 64 18 64 18 100 100 Calm 30.15 1021 10 16 0.00 0.00
4:55 am 04:55 Cloudy 66 19 66 19 100 100 Calm 30.15 1021 10 16 0.00 0.00
5:15 am 05:15 Partly Cloudy 64 18 64 18 100 100 Calm 30.15 1021 10 16 0.00 0.00
5:35 am 05:35 Clear 63 17 63 17 100 100 Calm 30.15 1021 10 16 0.00 0.00
5:55 am 05:55 Clear 64 18 64 18 100 100 Calm 30.15 1021 10 16 0.00 0.00
6:15 am 06:15 Clear 64 18 64 18 100 100 Calm 30.18 1022 10 16 0.00 0.00
6:35 am 06:35 Sunny 64 18 64 18 100 100 Calm 30.18 1022 10 16 0.00 0.00
6:55 am 06:55 Partly Cloudy 66 19 66 19 100 100 Calm 30.18 1022 10 16 0.00 0.00
7:15 am 07:15 Partly Cloudy 66 19 66 19 100 100 Calm 30.21 1023 10 16 0.00 0.00
7:35 am 07:35 Mostly Cloudy 68 20 68 20 100 100 Calm 30.21 1023 10 16 0.00 0.00
7:55 am 07:55 Cloudy 70 21 70 21 100 100 Calm 30.21 1023 10 16 0.00 0.00
8:15 am 08:15 Cloudy 70 21 68 20 94 94 Calm 30.21 1023 10 16 0.00 0.00
8:35 am 08:35 Cloudy 70 21 70 21 100 100 ENE 3 6 30.21 1023 10 16 0.00 0.00
8:55 am 08:55 Cloudy 70 21 70 21 100 100 SSE 3 6 30.21 1023 10 16 0.00 0.00
9:15 am 09:15 Cloudy 72 22 70 21 94 94 Calm 30.21 1023 10 16 0.00 0.00
9:35 am 09:35 Cloudy 72 22 70 21 94 94 S 5 7 30.21 1023 10 16 0.00 0.00
9:55 am 09:55 Cloudy 73 23 68 20 83 83 S 6 9 30.21 1023 10 16 0.00 0.00
10:15 am 10:15 Cloudy 73 23 68 20 83 83 S 3 6 30.24 1024 10 16 0.00 0.00
10:35 am 10:35 Cloudy 73 23 68 20 83 83 S 5 7 30.24 1024 10 16 0.00 0.00
10:55 am 10:55 Cloudy 73 23 64 18 74 74 S 7 11 30.24 1024 10 16 0.00 0.00
11:15 am 11:15 Cloudy 73 23 68 20 83 83 S 5 7 30.24 1024 10 16 0.00 0.00
11:35 am 11:35 Cloudy 75 24 68 20 78 78 S 7 11 30.24 1024 10 16 0.00 0.00
11:55 am 11:55 Cloudy 77 25 68 20 74 74 SSW 6 9 30.24 1024 10 16 0.00 0.00
12:15 pm 12:15 Cloudy 77 25 68 20 74 74 SSW 7 11 30.24 1024 10 16 0.00 0.00
12:35 pm 12:35 Cloudy 77 25 68 20 74 74 SSW 6 9 30.24 1024 10 16 0.00 0.00
12:55 pm 12:55 Cloudy 77 25 70 21 79 79 S 3 6 30.24 1024 10 16 0.00 0.00
1:15 pm 13:15 Cloudy 77 25 70 21 79 79 S 7 11 30.21 1023 10 16 0.00 0.00
1:35 pm 13:35 Cloudy 77 25 70 21 79 79 S 7 11 30.21 1023 10 16 0.00 0.00
1:55 pm 13:55 Cloudy 79 26 70 21 74 74 S 10 17 30.21 1023 10 16 0.00 0.00
2:15 pm 14:15 Cloudy 79 26 70 21 74 74 SSW 8 13 30.21 1023 10 16 0.00 0.00
2:35 pm 14:35 Cloudy 79 26 70 21 74 74 SSW 7 11 30.21 1023 10 16 0.00 0.00
2:55 pm 14:55 Cloudy 79 26 72 22 79 79 S 12 19 30.21 1023 10 16 0.00 0.00
3:15 pm 15:15 Cloudy 79 26 72 22 79 79 S 10 17 30.21 1023 10 16 0.00 0.00
3:35 pm 15:35 Cloudy 79 26 72 22 79 79 S 12 19 30.21 1023 10 16 0.00 0.00
3:55 pm 15:55 Cloudy 79 26 72 22 79 79 S 9 15 30.18 1022 10 16 0.00 0.00
4:15 pm 16:15 Cloudy 79 26 72 22 79 79 SE 10 17 30.18 1022 10 16 0.00 0.00
4:35 pm 16:35 Cloudy 79 26 72 22 79 79 SSE 10 17 30.18 1022 10 16 0.00 0.00
4:55 pm 16:55 Cloudy 79 26 72 22 79 79 SSE 9 15 30.18 1022 10 16 0.00 0.00
5:15 pm 17:15 Cloudy 79 26 73 23 84 84 S 13 20 30.18 1022 10 16 0.00 0.00
5:35 pm 17:35 Cloudy 79 26 73 23 84 84 S 12 19 30.18 1022 10 16 0.00 0.00
5:55 pm 17:55 Cloudy 79 26 73 23 84 84 SSE 8 13 30.18 1022 10 16 0.00 0.00
6:15 pm 18:15 Cloudy 79 26 73 23 84 84 S 14 22 30.18 1022 10 16 0.00 0.00
6:35 pm 18:35 Cloudy 79 26 73 23 84 84 SSW 9 15 30.18 1022 10 16 0.00 0.00
6:55 pm 18:55 Cloudy 79 26 73 23 84 84 S 9 15 30.18 1022 10 16 0.00 0.00
7:15 pm 19:15 Cloudy 79 26 73 23 84 84 SSW 13 20 30.18 1022 10 16 0.00 0.00
7:35 pm 19:35 Cloudy 77 25 73 23 89 89 SSW 12 19 30.18 1022 10 16 0.00 0.00
7:55 pm 19:55 Cloudy 77 25 73 23 89 89 SSW 10 17 30.18 1022 10 16 0.00 0.00
8:15 pm 20:15 Cloudy 77 25 73 23 89 89 SSW 10 17 30.18 1022 10 16 0.00 0.00
8:35 pm 20:35 Cloudy 77 25 73 23 89 89 SSW 9 15 30.18 1022 10 16 0.00 0.00
8:55 pm 20:55 Cloudy 77 25 75 24 94 94 S 10 17 30.18 1022 10 16 0.00 0.00
9:15 pm 21:15 Cloudy 77 25 75 24 94 94 SSW 10 17 30.18 1022 10 16 0.00 0.00
9:35 pm 21:35 Cloudy 77 25 75 24 94 94 SSW 9 15 30.18 1022 10 16 0.00 0.00
9:55 pm 21:55 Cloudy 77 25 75 24 94 94 SSW 10 17 30.21 1023 10 16 0.00 0.00
10:15 pm 22:15 Cloudy 77 25 73 23 89 89 SSW 9 15 30.21 1023 10 16 0.00 0.00
10:35 pm 22:35 Cloudy 75 24 75 24 100 100 SSW 6 9 30.21 1023 10 16 0.00 0.00
10:55 pm 22:55 Cloudy 75 24 75 24 100 100 SW 3 6 30.21 1023 10 16 0.00 0.00
11:15 pm 23:15 Cloudy 75 24 75 24 100 100 SW 3 6 30.21 1023 10 16 0.00 0.00
11:35 pm 23:35 Cloudy 75 24 75 24 100 100 SSW 6 9 30.21 1023 10 16 0.00 0.00
11:55 pm 23:55 Cloudy 75 24 75 24 100 100 SSW 5 7 30.21 1023 10 16 0.00 0.00

Powered by AerisWeather